N2KH KSTL-KCLE

Flight info

Callsign N2KH
Flight time N/A
Altitude 42000
Route JHART7 DOBLR CAROL J134 MOSEY DRUGA ROKNN4
Aircraft C750/M-VGDW/C

Departure

Time 2026-05-07 14:40
Airport St. Louis Lambert International Airport (KSTL)

Arrival

Time N/A
Airport Cleveland Hopkins International Airport (KCLE)
Time Latitude Longitude Altitude Speed Heading
2026-05-07 14:19 38.74788 -90.37270 535 ft 0 kts 218°
2026-05-07 14:27 38.74789 -90.37270 535 ft 0 kts 218°
2026-05-07 14:32 38.74789 -90.37269 535 ft 0 kts 218°
2026-05-07 14:35 38.74800 -90.37259 535 ft 2 kts 206°
2026-05-07 14:35 38.74810 -90.37250 534 ft 2 kts 252°
2026-05-07 14:36 38.74810 -90.37237 534 ft 2 kts 317°
2026-05-07 14:36 38.74805 -90.37232 535 ft 1 kts 308°
2026-05-07 14:36 38.74807 -90.37235 535 ft 0 kts 307°
2026-05-07 14:36 38.74809 -90.37238 534 ft 1 kts 307°
2026-05-07 14:37 38.74829 -90.37275 535 ft 12 kts 306°
2026-05-07 14:37 38.74909 -90.37428 530 ft 22 kts 296°
2026-05-07 14:37 38.75018 -90.37639 528 ft 36 kts 301°
2026-05-07 14:38 38.75125 -90.37855 524 ft 21 kts 303°
2026-05-07 14:38 38.75200 -90.38003 524 ft 19 kts 318°
2026-05-07 14:38 38.75289 -90.37985 521 ft 1 kts 31°
2026-05-07 14:38 38.75297 -90.37978 521 ft 6 kts 31°
2026-05-07 14:39 38.75361 -90.37913 520 ft 16 kts 60°
2026-05-07 14:39 38.75309 -90.37789 521 ft 19 kts 121°
2026-05-07 14:39 38.75233 -90.37613 521 ft 26 kts 117°
2026-05-07 14:39 38.75086 -90.37305 528 ft 82 kts 122°
2026-05-07 14:40 38.74617 -90.36357 579 ft 152 kts 125°
2026-05-07 14:40 38.74048 -90.35160 938 ft 165 kts 123°
2026-05-07 14:40 38.73456 -90.33769 1339 ft 191 kts 120°
2026-05-07 14:40 38.73155 -90.31998 1673 ft 217 kts 96°
2026-05-07 14:41 38.73042 -90.30014 2105 ft 236 kts 96°
2026-05-07 14:41 38.72892 -90.27854 2527 ft 249 kts 96°
2026-05-07 14:41 38.72759 -90.25606 2932 ft 254 kts 91°
2026-05-07 14:41 38.72777 -90.23312 3341 ft 259 kts 90°
2026-05-07 14:42 38.72731 -90.21014 3752 ft 260 kts 91°
2026-05-07 14:42 38.72765 -90.18697 4116 ft 262 kts 83°
2026-05-07 14:42 38.73026 -90.16389 4501 ft 263 kts 82°
2026-05-07 14:42 38.73243 -90.14053 4893 ft 264 kts 83°
2026-05-07 14:43 38.73457 -90.11710 5285 ft 265 kts 82°
2026-05-07 14:43 38.73684 -90.09404 5653 ft 267 kts 81°
2026-05-07 14:43 38.73920 -90.07046 6055 ft 272 kts 81°
2026-05-07 14:43 38.74157 -90.04624 6461 ft 276 kts 81°
2026-05-07 14:44 38.74394 -90.02181 6845 ft 279 kts 81°
2026-05-07 14:44 38.74635 -89.99700 7232 ft 282 kts 81°
2026-05-07 14:44 38.74878 -89.97194 7599 ft 285 kts 80°
2026-05-07 14:44 38.75121 -89.94662 7985 ft 288 kts 81°
2026-05-07 14:45 38.75368 -89.92098 8368 ft 291 kts 81°
2026-05-07 14:45 38.75615 -89.89546 8759 ft 294 kts 81°
2026-05-07 14:45 38.75866 -89.86926 9156 ft 298 kts 81°
2026-05-07 14:45 38.76118 -89.84278 9556 ft 301 kts 81°
2026-05-07 14:46 38.76375 -89.81600 9964 ft 304 kts 81°
2026-05-07 14:46 38.76633 -89.78897 10435 ft 309 kts 81°
2026-05-07 14:46 38.76895 -89.76143 10947 ft 314 kts 81°
2026-05-07 14:46 38.77161 -89.73344 11454 ft 320 kts 81°
2026-05-07 14:47 38.77430 -89.70496 11964 ft 325 kts 81°
2026-05-07 14:47 38.77703 -89.67598 12484 ft 330 kts 81°
2026-05-07 14:47 38.77976 -89.64694 13007 ft 336 kts 81°
2026-05-07 14:47 38.78257 -89.61700 13542 ft 341 kts 81°
2026-05-07 14:48 38.78542 -89.58656 14065 ft 346 kts 81°
2026-05-07 14:48 38.78829 -89.55576 14542 ft 350 kts 81°
2026-05-07 14:48 38.79118 -89.52463 15022 ft 354 kts 81°
2026-05-07 14:48 38.79502 -89.49338 15505 ft 356 kts 76°
2026-05-07 14:49 38.79916 -89.46188 16005 ft 360 kts 78°
2026-05-07 14:49 38.80279 -89.42988 16514 ft 365 kts 78°
2026-05-07 14:49 38.80675 -89.39804 17026 ft 368 kts 77°
2026-05-07 14:49 38.81114 -89.36549 17553 ft 373 kts 77°
2026-05-07 14:50 38.81543 -89.33251 18081 ft 377 kts 77°
2026-05-07 14:50 38.81963 -89.29876 18604 ft 390 kts 78°
2026-05-07 14:50 38.82400 -89.26393 19083 ft 402 kts 78°
2026-05-07 14:50 38.82858 -89.22803 19577 ft 414 kts 78°
2026-05-07 14:51 38.83327 -89.19110 20078 ft 425 kts 78°
2026-05-07 14:51 38.83801 -89.15326 20583 ft 435 kts 78°
2026-05-07 14:51 38.84193 -89.11431 21066 ft 447 kts 85°
2026-05-07 14:51 38.84130 -89.07412 21571 ft 455 kts 91°
2026-05-07 14:52 38.84027 -89.03317 22103 ft 463 kts 91°
2026-05-07 14:52 38.83962 -88.99156 22644 ft 470 kts 90°
2026-05-07 14:52 38.83892 -88.94990 23184 ft 477 kts 91°
2026-05-07 14:52 38.83792 -88.90713 23727 ft 483 kts 91°
2026-05-07 14:53 38.83686 -88.86383 24188 ft 489 kts 91°
2026-05-07 14:53 38.83596 -88.82000 24662 ft 494 kts 91°
2026-05-07 14:53 38.83507 -88.77590 25246 ft 495 kts 91°
2026-05-07 14:53 38.83405 -88.73167 25849 ft 497 kts 92°
2026-05-07 14:54 38.83297 -88.68736 26465 ft 498 kts 92°
2026-05-07 14:54 38.83194 -88.64290 27093 ft 499 kts 92°
2026-05-07 14:54 38.83092 -88.59835 27736 ft 501 kts 92°
2026-05-07 14:54 38.82984 -88.55365 28392 ft 502 kts 92°
2026-05-07 14:55 38.82873 -88.50949 29058 ft 503 kts 92°
2026-05-07 14:55 38.82762 -88.46464 29740 ft 503 kts 92°
2026-05-07 14:55 38.82650 -88.41977 30400 ft 504 kts 93°
2026-05-07 14:55 38.82535 -88.37483 30989 ft 504 kts 93°
2026-05-07 14:56 38.82417 -88.32993 31585 ft 504 kts 94°
2026-05-07 14:56 38.82298 -88.28498 32197 ft 504 kts 94°
2026-05-07 14:56 38.82179 -88.24006 32822 ft 504 kts 94°
2026-05-07 14:56 38.82057 -88.19520 33464 ft 504 kts 95°
2026-05-07 14:57 38.81933 -88.15036 34109 ft 503 kts 95°
2026-05-07 14:57 38.81809 -88.10614 34642 ft 502 kts 95°
2026-05-07 14:57 38.81683 -88.06145 35204 ft 501 kts 95°
2026-05-07 14:57 38.81556 -88.01685 35782 ft 500 kts 95°
2026-05-07 14:58 38.81426 -87.97237 36375 ft 498 kts 95°
2026-05-07 14:58 38.81295 -87.92807 36983 ft 496 kts 95°
2026-05-07 14:58 38.81164 -87.88396 37617 ft 494 kts 95°
2026-05-07 14:58 38.81031 -87.84005 38171 ft 494 kts 95°
2026-05-07 14:59 38.80889 -87.79498 37808 ft 519 kts 95°
2026-05-07 14:59 38.80749 -87.74915 37409 ft 499 kts 95°
2026-05-07 14:59 38.80629 -87.70692 36990 ft 463 kts 96°
2026-05-07 14:59 38.80503 -87.66683 36513 ft 441 kts 96°
2026-05-07 15:00 38.80365 -87.62780 36051 ft 436 kts 97°
2026-05-07 15:00 38.80234 -87.58912 35629 ft 433 kts 97°
2026-05-07 15:00 38.80116 -87.55070 35233 ft 430 kts 97°
2026-05-07 15:00 38.79994 -87.51254 34856 ft 427 kts 97°
2026-05-07 15:01 38.79863 -87.47464 34493 ft 424 kts 97°
2026-05-07 15:01 38.79734 -87.43696 34129 ft 422 kts 97°
2026-05-07 15:01 38.79609 -87.39958 33711 ft 417 kts 97°
2026-05-07 15:01 38.79487 -87.36324 33297 ft 411 kts 97°
2026-05-07 15:02 38.79360 -87.32695 32862 ft 405 kts 97°
2026-05-07 15:02 38.79230 -87.29080 32448 ft 406 kts 97°
2026-05-07 15:02 38.79104 -87.25489 32047 ft 400 kts 97°
2026-05-07 15:02 38.78982 -87.21956 31650 ft 394 kts 96°
2026-05-07 15:03 38.78857 -87.18471 31262 ft 389 kts 96°
2026-05-07 15:03 38.78731 -87.15038 30877 ft 383 kts 96°
2026-05-07 15:03 38.78607 -87.11651 30497 ft 378 kts 96°
2026-05-07 15:03 38.78487 -87.08363 30113 ft 372 kts 95°
2026-05-07 15:04 38.78365 -87.05066 29654 ft 369 kts 95°
2026-05-07 15:04 38.78243 -87.01799 29210 ft 365 kts 95°
2026-05-07 15:04 38.78121 -86.98562 28773 ft 362 kts 95°
2026-05-07 15:04 38.78000 -86.95358 28343 ft 359 kts 95°
2026-05-07 15:05 38.77877 -86.92154 27914 ft 363 kts 96°
2026-05-07 15:05 38.77754 -86.88947 27498 ft 358 kts 96°
2026-05-07 15:05 38.77632 -86.85776 27087 ft 354 kts 96°
2026-05-07 15:05 38.77510 -86.82636 26681 ft 352 kts 96°
2026-05-07 15:06 38.77389 -86.79564 26284 ft 348 kts 96°
2026-05-07 15:06 38.77267 -86.76476 25882 ft 345 kts 96°
2026-05-07 15:06 38.77146 -86.73421 25497 ft 342 kts 95°
2026-05-07 15:06 38.77025 -86.70390 25113 ft 339 kts 95°
2026-05-07 15:07 38.76904 -86.67390 24736 ft 336 kts 95°
2026-05-07 15:07 38.76781 -86.64383 24481 ft 341 kts 95°
2026-05-07 15:07 38.76655 -86.61331 24390 ft 344 kts 95°
2026-05-07 15:07 38.76530 -86.58259 24297 ft 347 kts 95°
2026-05-07 15:08 38.76406 -86.55206 24208 ft 349 kts 96°
2026-05-07 15:08 38.76276 -86.52090 24106 ft 352 kts 96°
2026-05-07 15:08 38.76143 -86.48956 23999 ft 353 kts 96°
2026-05-07 15:08 38.76011 -86.45811 23895 ft 354 kts 96°
2026-05-07 15:09 38.75878 -86.42654 23789 ft 355 kts 95°
2026-05-07 15:09 38.75743 -86.39487 23676 ft 356 kts 95°
2026-05-07 15:09 38.75607 -86.36319 23556 ft 356 kts 95°
2026-05-07 15:09 38.75470 -86.33149 23404 ft 356 kts 95°
2026-05-07 15:10 38.75326 -86.29911 23279 ft 385 kts 95°
2026-05-07 15:10 38.75166 -86.26346 23180 ft 417 kts 95°
2026-05-07 15:10 38.74999 -86.22514 23091 ft 445 kts 95°
2026-05-07 15:10 38.74822 -86.18447 23019 ft 470 kts 95°
2026-05-07 15:11 38.74630 -86.14167 22930 ft 493 kts 95°
2026-05-07 15:11 38.74425 -86.09691 22829 ft 514 kts 95°
2026-05-07 15:11 38.74214 -86.05048 22725 ft 531 kts 95°
2026-05-07 15:11 38.74000 -86.00304 22602 ft 536 kts 95°
2026-05-07 15:12 38.73783 -85.95587 22469 ft 538 kts 95°
2026-05-07 15:12 38.73557 -85.90803 22335 ft 539 kts 95°
2026-05-07 15:12 38.73329 -85.86011 22204 ft 539 kts 95°
2026-05-07 15:12 38.73103 -85.81227 22074 ft 538 kts 95°
2026-05-07 15:13 38.72875 -85.76449 21947 ft 537 kts 95°
2026-05-07 15:13 38.72643 -85.71678 21818 ft 536 kts 95°
2026-05-07 15:13 38.72409 -85.66913 21690 ft 536 kts 95°
2026-05-07 15:13 38.72175 -85.62161 21564 ft 535 kts 95°
2026-05-07 15:14 38.71941 -85.57415 21441 ft 534 kts 95°
2026-05-07 15:14 38.71703 -85.52677 21313 ft 533 kts 95°
2026-05-07 15:14 38.71467 -85.48012 21186 ft 532 kts 95°
2026-05-07 15:14 38.71339 -85.43277 21018 ft 533 kts 88°
2026-05-07 15:15 38.72039 -85.38630 20777 ft 533 kts 71°
2026-05-07 15:15 38.73595 -85.34376 20589 ft 525 kts 54°
2026-05-07 15:15 38.75834 -85.30760 20408 ft 515 kts 43°
2026-05-07 15:15 38.78270 -85.27396 20306 ft 514 kts 41°
2026-05-07 15:16 38.80721 -85.24075 20246 ft 509 kts 41°
2026-05-07 15:16 38.83132 -85.20748 20119 ft 509 kts 42°
2026-05-07 15:16 38.85519 -85.17392 20008 ft 508 kts 42°
2026-05-07 15:16 38.87878 -85.14100 19893 ft 507 kts 41°
2026-05-07 15:17 38.90280 -85.10793 19758 ft 506 kts 41°
2026-05-07 15:17 38.92674 -85.07482 19638 ft 505 kts 41°
2026-05-07 15:17 38.95050 -85.04160 19514 ft 505 kts 42°
2026-05-07 15:17 38.97430 -85.00827 19390 ft 506 kts 42°
2026-05-07 15:18 38.99814 -84.97507 19273 ft 505 kts 41°
2026-05-07 15:18 39.02193 -84.94198 19175 ft 501 kts 42°
2026-05-07 15:18 39.04545 -84.90903 19061 ft 500 kts 42°
2026-05-07 15:18 39.06893 -84.87610 18941 ft 499 kts 42°
2026-05-07 15:19 39.09209 -84.84367 18828 ft 498 kts 42°
2026-05-07 15:19 39.11548 -84.81091 18708 ft 497 kts 42°
2026-05-07 15:19 39.13879 -84.77818 18595 ft 496 kts 42°
2026-05-07 15:19 39.16206 -84.74544 18478 ft 495 kts 42°
2026-05-07 15:20 39.18528 -84.71276 18356 ft 494 kts 42°
2026-05-07 15:20 39.20845 -84.68016 18224 ft 492 kts 42°
2026-05-07 15:20 39.23156 -84.64755 18122 ft 493 kts 42°
2026-05-07 15:20 39.25435 -84.61533 17987 ft 485 kts 42°
2026-05-07 15:21 39.27676 -84.58373 17854 ft 484 kts 42°
2026-05-07 15:21 39.29939 -84.55176 17488 ft 477 kts 43°
2026-05-07 15:21 39.32089 -84.52113 16949 ft 444 kts 43°
2026-05-07 15:21 39.34105 -84.49242 16413 ft 422 kts 43°
2026-05-07 15:22 39.36062 -84.46487 15892 ft 412 kts 42°
2026-05-07 15:22 39.37984 -84.43776 15381 ft 407 kts 43°
2026-05-07 15:22 39.39877 -84.41079 14884 ft 402 kts 43°
2026-05-07 15:22 39.41740 -84.38417 14398 ft 397 kts 44°
2026-05-07 15:23 39.43587 -84.35793 13888 ft 392 kts 44°
2026-05-07 15:23 39.45382 -84.33242 13387 ft 385 kts 44°
2026-05-07 15:23 39.47177 -84.30682 12860 ft 382 kts 44°
2026-05-07 15:23 39.48955 -84.28142 12330 ft 380 kts 44°
2026-05-07 15:24 39.50725 -84.25616 11817 ft 377 kts 44°
2026-05-07 15:24 39.52476 -84.23113 11311 ft 373 kts 44°
2026-05-07 15:24 39.54210 -84.20632 10811 ft 370 kts 44°
2026-05-07 15:24 39.55924 -84.18177 10323 ft 366 kts 45°
2026-05-07 15:25 39.57624 -84.15743 9822 ft 362 kts 45°
2026-05-07 15:25 39.59304 -84.13334 9294 ft 357 kts 45°
2026-05-07 15:25 39.60957 -84.10959 8755 ft 352 kts 45°
2026-05-07 15:25 39.62566 -84.08650 8233 ft 347 kts 45°
2026-05-07 15:26 39.64167 -84.06349 7722 ft 336 kts 45°
2026-05-07 15:26 39.65681 -84.04165 7221 ft 316 kts 45°
2026-05-07 15:26 39.67124 -84.02089 6711 ft 310 kts 44°
2026-05-07 15:26 39.68557 -84.00039 6198 ft 300 kts 44°
2026-05-07 15:27 39.70114 -83.98216 5653 ft 297 kts 36°
2026-05-07 15:27 39.71714 -83.96483 5140 ft 296 kts 37°
2026-05-07 15:27 39.73294 -83.94736 4623 ft 298 kts 37°
2026-05-07 15:27 39.74834 -83.93018 4095 ft 293 kts 37°
2026-05-07 15:28 39.76359 -83.91333 3588 ft 285 kts 37°
2026-05-07 15:28 39.77869 -83.89665 3084 ft 285 kts 37°
2026-05-07 15:28 39.79237 -83.88143 2576 ft 237 kts 38°
2026-05-07 15:28 39.80480 -83.86767 2059 ft 233 kts 36°
2026-05-07 15:29 39.81699 -83.85426 2036 ft 226 kts 37°
2026-05-07 15:29 39.82914 -83.84080 2035 ft 231 kts 36°
2026-05-07 15:29 39.84132 -83.82726 2211 ft 231 kts 37°
2026-05-07 15:29 39.85057 -83.81697 2400 ft 232 kts 37°
2026-05-07 15:30 39.85920 -83.80749 2593 ft 233 kts 36°
2026-05-07 15:30 39.87164 -83.79387 2848 ft 237 kts 36°
2026-05-07 15:30 39.88403 -83.78003 3080 ft 237 kts 37°
2026-05-07 15:30 39.89645 -83.76608 3079 ft 232 kts 37°
2026-05-07 15:31 39.90890 -83.75219 3076 ft 236 kts 36°
2026-05-07 15:31 39.92133 -83.73835 3071 ft 238 kts 37°
2026-05-07 15:31 39.93385 -83.72441 3065 ft 237 kts 37°
2026-05-07 15:31 39.94638 -83.71044 3066 ft 236 kts 37°
2026-05-07 15:32 39.95869 -83.69674 3061 ft 235 kts 37°
2026-05-07 15:32 39.97119 -83.68283 3063 ft 237 kts 36°
2026-05-07 15:32 39.98375 -83.66884 3064 ft 239 kts 37°
2026-05-07 15:32 39.99627 -83.65483 3068 ft 239 kts 37°
2026-05-07 15:33 40.00880 -83.64084 3068 ft 238 kts 37°
2026-05-07 15:33 40.02122 -83.62698 3077 ft 234 kts 36°
2026-05-07 15:33 40.03364 -83.61311 3076 ft 236 kts 37°
2026-05-07 15:33 40.04607 -83.59920 3072 ft 236 kts 37°
2026-05-07 15:34 40.05839 -83.58542 3072 ft 236 kts 37°
2026-05-07 15:34 40.07079 -83.57154 3070 ft 235 kts 37°
2026-05-07 15:34 40.08330 -83.55755 3072 ft 236 kts 36°
2026-05-07 15:34 40.09590 -83.54344 3070 ft 238 kts 37°
2026-05-07 15:35 40.10848 -83.52933 3077 ft 238 kts 36°
2026-05-07 15:35 40.12105 -83.51523 3050 ft 236 kts 37°
2026-05-07 15:35 40.13360 -83.50114 3073 ft 238 kts 37°
2026-05-07 15:35 40.14618 -83.48702 3071 ft 237 kts 37°
2026-05-07 15:36 40.15877 -83.47284 3047 ft 237 kts 37°
2026-05-07 15:36 40.17109 -83.45903 3101 ft 237 kts 37°
2026-05-07 15:36 40.18342 -83.44491 3169 ft 239 kts 39°
2026-05-07 15:36 40.19519 -83.42965 3232 ft 236 kts 40°
2026-05-07 15:37 40.20733 -83.41501 3317 ft 238 kts 39°
2026-05-07 15:37 40.21946 -83.40020 3395 ft 238 kts 40°
2026-05-07 15:37 40.23142 -83.38518 3471 ft 241 kts 40°
2026-05-07 15:37 40.24342 -83.37015 3542 ft 240 kts 40°
2026-05-07 15:38 40.25554 -83.35512 3621 ft 241 kts 40°
2026-05-07 15:38 40.26769 -83.33990 3698 ft 243 kts 40°
2026-05-07 15:38 40.27959 -83.32497 3783 ft 241 kts 40°
2026-05-07 15:38 40.29173 -83.30985 3862 ft 241 kts 40°
2026-05-07 15:39 40.30383 -83.29472 3937 ft 239 kts 40°
2026-05-07 15:39 40.31597 -83.27951 4018 ft 242 kts 40°
2026-05-07 15:39 40.32808 -83.26433 4097 ft 243 kts 40°
2026-05-07 15:39 40.34031 -83.24902 4173 ft 240 kts 40°
2026-05-07 15:40 40.35259 -83.23366 4257 ft 244 kts 40°
2026-05-07 15:40 40.36479 -83.21832 4333 ft 242 kts 40°
2026-05-07 15:40 40.37707 -83.20291 4415 ft 244 kts 40°
2026-05-07 15:40 40.38935 -83.18751 4489 ft 245 kts 40°
2026-05-07 15:41 40.40144 -83.17232 4567 ft 245 kts 40°
2026-05-07 15:41 40.41378 -83.15681 4656 ft 243 kts 40°
2026-05-07 15:41 40.42600 -83.14143 4734 ft 244 kts 40°
2026-05-07 15:41 40.43823 -83.12605 4814 ft 242 kts 40°
2026-05-07 15:42 40.45047 -83.11066 4888 ft 246 kts 39°
2026-05-07 15:42 40.46267 -83.09528 4964 ft 244 kts 40°
2026-05-07 15:42 40.47493 -83.07982 5042 ft 244 kts 39°
2026-05-07 15:42 40.48722 -83.06432 5122 ft 245 kts 39°
2026-05-07 15:43 40.49932 -83.04906 5199 ft 247 kts 40°
2026-05-07 15:43 40.51167 -83.03351 5277 ft 244 kts 40°
2026-05-07 15:43 40.52402 -83.01799 5359 ft 246 kts 39°
2026-05-07 15:43 40.53641 -83.00241 5426 ft 247 kts 40°